FREGAT DEB, 45977

Orbit data source: Space-Track

FREGAT DEB, 45977 is space debris in LEO originally from a launch on Mon, 18 Jul 2011 UTC launched from the Tyuratam Missile And Space Complex (TTMTR). Debris objects in space refer to the collection of defunct objects orbiting the Earth. Examples of debris include non-operational satellites, rocket bodies, and fragments generated from explosions, collisions, or faulty payload assembly.

Loading next visibility...
Identifier
45977, 2011-037GJ
Orbit
LEO
Country
Flag of CISCIS
Related business
Manufacturer
Lavochkin
Mission
Spacecraft
Bus & Motor
Unknown
Mass
Unknown
Launch date (UTC)
2011-07-18 (15 years ago)
Launch vehicle
Unknown
Launch site
Tyuratam Missile And Space Complex (TTMTR)
Object type
Payload
Rocket body
Debris
Shape & HBR
Unknown shape, 0.1 m
Radar Cross Section
Small (<0.1 m²)

Expand to show TLE details & history
Last TLE update: 2 days ago

TLE from 2 days ago
0 FREGAT DEB
1 45977U 11037GJ  26033.58455187  .00000476  00000-0  13045-2 0  9993
2 45977  51.5505 120.6670 1800982 223.0209 121.5096 10.67641273215664
Epoch: 2026-02-02T14:01Z
TLE epoch observation values (Epoch: 2026-02-02T14:01:45.281Z)
Latitude
0.00001°
Longitude
137.4506°
Altitude
3,331.782 km
Speed
6.031 km/s
True Right ascension
08h 02m 40s
True Declination
0° 00' 00"
Sunlit
Object was in full shadow at epoch
Visualization orbit readout
Latitude
Unknown
Longitude
Unknown
Altitude
Unknown
Speed
Unknown
Apparent Right ascension
Unknown
Apparent Declination
Unknown
Sunlit
N/A
Visualization observer readout
Local Sidereal Time
04:17:44
Azimuth
Unknown
Elevation
Unknown
Doppler factor
Unknown
Orbital elements
Apogee altitude
3,903.396 km
Perigee altitude
765.207 km
Semi-major axis
8,712.438 km
Eccentricity
0.1801
Inclination
51.5505°
RAAN
120.667°
Arg. of periapsis
223.0209°
True anomaly
137.05629°
Mean anomaly
121.5096°
Eccentric anomaly
129.47478°
Mean motion
2.66891 °/min
Orbital period
134.89 mins
BSTAR
0.0013045
Loading maneuver chart data...
Computing Atmospheric mass density...
Loading historical data...
Loading historical data...
Loading historical data...
Loading historical data...
Loading historical data...
Loading historical data...
Loading historical data...

Documentation

Showing up to 5 results
|